MDT,Max TemperatureF,Mean TemperatureF,Min TemperatureF,Max Dew PointF,MeanDew PointF,Min DewpointF,Max Humidity, Mean Humidity, Min Humidity, Max Sea Level PressureIn, Mean Sea Level PressureIn, Min Sea Level PressureIn, Max VisibilityMiles, Mean VisibilityMiles, Min VisibilityMiles, Max Wind SpeedMPH, Mean Wind SpeedMPH, Max Gust SpeedMPH,PrecipitationIn, CloudCover, Events, WindDirDegrees
2013-8-1,76,62,47,52,44,34,100,62,23,30.24,29.98,29.83,,,,12,4,22,0.11,,,295
2013-8-2,68,54,39,45,31,10,96,54,12,30.11,30.00,29.83,,,,13,4,28,0.00,,,260
2013-8-3,74,55,35,44,30,17,92,53,13,30.14,30.11,30.06,,,,13,4,23,0.00,,,254
2013-8-4,77,57,36,45,32,20,92,53,13,30.15,30.10,30.06,,,,17,3,26,0.00,,,285
2013-8-5,78,57,35,45,33,18,85,48,10,30.12,30.04,29.96,,,,17,3,29,0.00,,,285
2013-8-6,75,57,38,45,32,21,79,47,14,30.06,30.03,29.98,,,,15,4,25,0.00,,,296
2013-8-7,77,56,35,45,30,10,89,49,9,30.08,30.04,29.99,,,,14,3,21,0.00,,,300
2013-8-8,71,54,37,51,39,30,85,58,31,30.16,30.08,30.03,,,,14,2,23,0.02,,,55
2013-8-9,65,52,39,50,43,38,96,70,44,30.21,30.16,30.10,,,,7,2,10,0.05,,,339
2013-8-10,77,57,37,48,37,24,100,58,16,30.20,30.14,30.07,,,,14,2,22,0.00,,,277
2013-8-11,77,59,40,45,38,28,82,50,18,30.18,30.12,30.05,,,,13,3,22,0.00,,,316
2013-8-12,72,55,38,47,36,29,92,57,22,30.21,30.17,30.12,,,,14,1,26,0.00,,,310
2013-8-13,70,54,37,47,40,33,100,70,40,30.40,30.25,30.17,,,,18,2,32,0.18,,,356
2013-8-14,76,56,35,47,37,26,100,58,16,30.30,30.20,30.10,,,,12,2,20,0.00,,,312
2013-8-15,80,58,36,46,34,17,92,51,10,30.20,30.15,30.10,,,,13,2,23,0.00,,,345
2013-8-16,82,60,37,45,31,14,76,43,9,30.20,30.14,30.08,,,,13,3,20,0.00,,,354
2013-8-17,82,61,39,45,31,13,79,44,8,30.19,30.10,30.05,,,,15,2,23,0.00,,,283
2013-8-18,80,63,45,48,34,27,66,41,15,30.13,30.07,30.03,,,,17,4,24,0.00,,,287
2013-8-19,81,61,40,46,33,20,79,45,10,30.14,30.08,30.03,,,,15,3,22,0.00,,,270
2013-8-20,81,62,43,44,33,21,82,47,11,30.08,30.03,29.98,,,,14,3,23,0.00,,,298
2013-8-21,78,60,42,51,44,36,96,64,31,30.29,30.14,30.06,,,,10,2,21,0.32,,,138
2013-8-22,71,58,44,56,49,43,100,78,55,30.25,30.16,30.07,,,,5,1,8,0.00,,,102
2013-8-23,73,59,45,52,46,40,100,67,33,30.29,30.05,29.91,,,,5,2,9,0.02,,,292
2013-8-24,64,55,47,48,45,39,100,73,46,30.19,30.06,29.98,,,,7,1,,0.01,,,-1
2013-8-25,71,57,42,49,44,36,100,65,30,30.19,30.13,30.06,,,,8,2,15,0.02,,,25
2013-8-26,70,59,48,49,46,41,86,62,37,30.17,30.11,30.05,,,,9,2,15,0.00,,,213
2013-8-27,69,55,41,49,45,40,100,73,45,30.21,30.15,30.09,,,,7,2,17,0.00,,,101
2013-8-28,72,57,42,52,46,41,100,72,44,30.25,30.15,30.09,,,,12,2,26,0.02,,,300
2013-8-29,69,54,39,54,47,38,100,78,56,30.29,30.23,30.19,,,,12,1,24,0.03,,,300
2013-8-30,77,59,41,53,42,32,100,61,21,30.25,30.18,30.10,,,,15,3,26,0.04,,,296
2013-8-31,76,56,36,45,34,20,89,51,13,30.18,30.14,30.09,,,,12,3,18,0.00,,,315